Dewpoint
53 53 53 53 53 53 53 54 54 55 55 55 55 55 56 55 56 56 56 55 55 55 56 57 58 58 59 58 58 59 58 57 56 55 54 53 51 52 53 52 51 51
53 54 55 54 54 54 54 54 55 55 55 55 55 55 55 55 55 55 55 54 52 52 54 56 57 56 56 57 57 56 54 52 50 52 51 50 50 48 47 47 47 48
55 54 53 53 53 53 55 56 56 55 55 55 54 53 54 54 54 54 52 50 50 51 53 54 53 54 54 54 53 52 51 50 50 50 48 47 48 47 48 48 47 47
54 52 52 53 55 56 55 54 54 54 54 53 52 53 54 54 54 53 54 54 51 52 51 51 52 51 50 50 50 49 49 49 50 51 51 50 50 49 48 49 48 47
54 54 54 55 54 54 53 53 53 53 53 53 53 53 53 52 52 51 50 50 49 50 51 50 50 50 49 49 48 48 49 50 50 50 49 49 49 49 48 48 47 48
55 54 55 54 53 52 52 52 52 52 52 51 50 50 50 50 50 49 49 48 48 49 49 48 47 48 48 48 49 49 49 49 49 51 50 50 49 48 48 48 48 48
54 55 54 54 53 52 52 52 51 51 51 50 50 48 49 49 49 49 49 49 48 49 47 46 46 46 47 48 48 48 48 49 49 50 49 48 49 48 49 49 49 49
54 54 54 53 53 52 51 51 50 50 50 49 48 49 48 48 48 49 49 48 48 49 48 47 47 46 48 48 47 47 47 49 48 49 49 48 47 48 48 48 47 47
54 54 53 53 53 53 52 51 51 50 50 48 49 50 50 47 48 48 47 48 48 48 48 47 48 48 48 47 46 46 47 47 49 48 48 48 48 48 47 47 46 47
53 53 52 53 53 53 52 52 52 51 51 49 49 50 50 49 48 46 47 47 47 47 47 48 49 48 48 48 48 48 48 48 48 48 48 47 48 47 46 45 45 45
52 52 52 52 52 52 52 51 51 51 51 50 49 48 50 50 49 47 46 46 47 46 47 48 49 48 48 48 49 48 48 48 48 48 47 47 47 46 49 45 46 44
52 52 53 52 51 51 51 51 51 50 51 50 50 49 50 50 49 49 46 45 45 46 48 49 48 47 46 48 49 48 47 47 47 47 47 46 46 47 47 46 45 44
54 53 55 53 51 50 50 50 50 50 51 50 52 51 51 50 48 49 49 45 45 47 49 49 48 47 47 49 50 49 47 46 46 47 48 47 46 46 46 46 44 45
58 57 56 54 53 51 51 50 49 50 51 51 52 51 51 49 47 48 49 47 47 47 49 49 48 48 48 49 50 49 48 48 48 49 49 47 46 46 46 46 46 46
57 57 57 56 56 54 53 52 51 51 52 52 52 52 52 50 48 48 48 48 48 48 48 49 49 49 50 50 50 50 50 49 49 50 50 49 47 47 48 48 49 48
56 56 56 56 56 55 55 54 54 54 54 53 53 53 52 49 48 49 47 47 47 48 48 48 48 49 51 48 48 49 50 49 50 49 49 51 51 50 50 51 52 50
56 56 56 56 55 55 55 56 55 54 54 54 53 53 53 52 52 51 50 46 47 47 47 48 49 49 46 44 43 45 49 49 50 50 49 51 51 51 51 52 51 51
56 56 56 55 56 55 54 54 54 54 54 53 53 53 52 52 53 52 52 51 49 48 47 48 48 47 44 42 42 42 46 50 51 51 50 51 51 52 52 52 52 51
47 48 49 51 52 52 53 54 54 54 53 53 53 54 52 52 52 52 53 53 52 51 49 49 49 46 44 43 42 41 41 46 50 51 52 52 53 53 52 52 52 52
38 40 42 44 45 45 45 45 46 47 51 53 54 54 52 52 52 52 52 52 52 51 52 51 50 45 42 42 42 41 40 42 50 52 52 52 53 53 53 52 52 52
37 38 39 41 43 43 43 43 44 44 44 47 50 52 52 53 52 51 51 51 52 50 50 51 52 45 42 42 41 40 40 42 50 52 53 53 52 52 52 52 52 52
37 38 38 38 38 39 39 40 41 42 42 43 43 45 47 49 49 49 50 50 50 50 50 50 51 43 42 42 43 43 42 49 51 52 53 52 52 52 51 51 51 52
38 38 38 37 37 37 37 38 38 38 38 41 39 40 42 44 45 47 49 50 49 48 49 50 50 47 42 42 43 42 45 50 51 51 51 52 52 52 52 52 51 51
38 39 37 38 37 37 37 37 38 37 37 39 38 38 38 40 42 44 46 48 49 51 50 49 50 48 45 43 42 42 46 51 51 51 52 51 51 50 50 51 51 51
37 38 39 37 37 37 38 37 37 38 38 38 38 38 39 40 41 41 42 43 46 48 52 51 51 50 46 43 43 42 44 49 50 50 50 50 51 51 50 50 50 51
38 38 38 37 37 37 37 38 38 37 37 37 37 37 37 37 37 38 39 40 42 44 47 49 50 51 49 44 43 43 42 48 49 49 49 49 50 50 50 48 48 49